Terug naar catalogus

STARLINK-33966

ActiefCommunicatieVLEO
NORAD 64203·PAYLOAD·🇺🇸 United States

Gelanceerd May 31, 2025 vanaf Vandenberg Space Force Base

Loading…

Volgende Passages (komende 24 uur)

TLE

VersSource: CelesTrak SupGP

Epoch: Sep 14, 2026, 21:06 UTC

1 64203C 25117A   26257.87965278  .00043844  00000+0  12954-2 0  2577
2 64203  53.1569 239.6254 0001264  93.8528  85.9348 15.34367177    17

Volg STARLINK-33966 in realtime met AllMySat

Download on the App Store